Location: Stara Lesna
(49.1528°N, 20.2911°E)
Time: 02:08:39
(UTC+02:00)

Unknown - Pass Details

Date: 21 September 2019
Orbit: 548 x 551 km, 53.0° (Epoch: 15 October)

Event Time Altitude Azimuth Distance (km) Brightness Sun altitude
Exits shadow 04:01:07 79° 140° (SE) 564 3.5 -22.9°
Drops below altitude 10° 04:05:13 10° 67° (ENE) 1,828 7.4 -22.3°
Sets 04:07:27 0° 66° (ENE) 2,725 8.7 -22.0°
